Regional Weather Roundup
Issued by NWS

Home | Current Version | Previous Version | Graphics & Text | Print | Product List | Glossary On
Versions: 1 2 3 4 5 6 7 8 9 10 11 12 13 14 15 16 17 18 19 20 21 22 23 24 25 26 27 28 29 30 31 32 33 34 35 36 37 38 39 40 41 42 43 44 45 46 47 48 49 50
000
ASUS43 KOAX 241402
RWRNE

WEATHER ROUNDUP FOR NEBRASKA
NATIONAL WEATHER SERVICE OMAHA NE
900 AM CDT FRI OCT 24 2014

NOTES: SATELLITE DATA IS BEING USED TO AUGMENT CLOUD COVER ABOVE
       12000 FEET.
       "FAIR" INDICATES FEW OR NO CLOUDS BELOW 12,000 FEET WITH NO
       SIGNIFICANT WEATHER AND/OR OBSTRUCTIONS TO VISIBILITY.

  * THESE STATIONS DO NOT REPORT WEATHER SUCH AS RAIN...SNOW OR FOG.

NEZ001>004-019>022-054>056-241500-
NEBRASKA PANHANDLE

CITY           SKY/WX    TMP DP  RH WIND       PRES   REMARKS
SCOTTSBLUFF    CLOUDY    51  37  58 NW7       30.06R
ALLIANCE       CLOUDY    50  36  58 W10       30.03R
CHADRON        CLOUDY    49  37  63 SW9       30.00R
KIMBALL        CLOUDY    56  30  36 W7        30.10R
SIDNEY         CLOUDY    49  36  61 W7        30.08R
$$

NEZ057>060-069>072-079>082-241500-
SOUTHWEST NEBRASKA

CITY           SKY/WX    TMP DP  RH WIND       PRES   REMARKS
NORTH PLATTE   CLOUDY    42  39  89 NW5       30.00R
IMPERIAL       MOCLDY    47  38  71 W6        30.03R
LEXINGTON      CLOUDY    49  47  91 W5        29.98R
MCCOOK         CLOUDY    49  45  86 W10       30.01R
OGALLALA       CLOUDY    48  39  72 W5        30.03R
$$

NEZ005>010-023>029-035>040-094-241500-
NORTH CENTRAL NEBRASKA

CITY           SKY/WX    TMP DP  RH WIND       PRES   REMARKS
VALENTINE      CLOUDY    42  36  79 W8        29.94R
AINSWORTH      CLOUDY    46  37  70 CALM      29.94R
BROKEN BOW     CLOUDY    53  44  71 CALM      29.95R
O`NEILL        CLOUDY    49  46  88 W5        29.92R
ORD            CLOUDY    45  44  97 NW5       29.93R FOG
THEDFORD       CLOUDY    53  39  60 W7        29.97R
$$

NEZ041-046>049-061>064-073>077-083>087-241500-
SOUTH CENTRAL NEBRASKA

CITY           SKY/WX    TMP DP  RH WIND       PRES   REMARKS
GRAND ISLAND   CLOUDY    57  53  86 W8        29.94R FOG
AURORA         CLOUDY    55  55 100 SW6       29.94R FOG
HASTINGS         N/A     55  51  86 SW8       29.95R FOG
HEBRON           N/A     58  56  92 SW8       29.97S FOG
HOLDREGE       CLOUDY    54  51  90 CALM      29.98R FOG
KEARNEY *      CLOUDY    54  50  87 SW10      29.96S
YORK           PTSUNNY   57  55  94 SW7       29.94R FOG
$$

NEZ011>018-030>034-042>045-241500-
NORTHEAST NEBRASKA

CITY           SKY/WX    TMP DP  RH WIND       PRES   REMARKS
NORFOLK        CLOUDY    54  53  97 CALM      29.91R FOG
ALBION         PTSUNNY   52  50  92 NW5       29.92R FOG
BLAIR          CLOUDY    59  57  94 S12       29.92S FOG
COLUMBUS *     CLOUDY    57  52  82 SW5       29.93S
FREMONT        CLOUDY    60  58  91 S5        29.92S FOG
TEKAMAH        CLOUDY    60  57  89 S6        29.91R FOG
WAYNE          CLOUDY    53  52  97 SW3       29.90S FOG
$$

NEZ050>053-065>068-078-088>093-241500-
SOUTHEAST NEBRASKA

CITY           SKY/WX    TMP DP  RH WIND       PRES   REMARKS
LINCOLN        CLOUDY    60  57  89 S6        29.95R FOG
OMAHA EPPLEY   CLOUDY    60  57  89 S14       29.93S FOG
BEATRICE       CLOUDY    59  58  98 SW9       29.97S FOG
FALLS CITY     CLOUDY    59  57  93 S9        29.99S FOG
NEBRASKA CITY  CLOUDY    58  58 100 S10       29.97R FOG
PLATTSMOUTH    CLOUDY    58  57  94 S12       29.95S FOG
$$

NEZ044-045-051>053-067-241500-
OMAHA AREA

CITY           SKY/WX    TMP DP  RH WIND       PRES   REMARKS
OMAHA EPPLEY   CLOUDY    60  57  89 S14       29.93S FOG
BLAIR          CLOUDY    59  57  94 S12       29.92S FOG
FREMONT        CLOUDY    60  58  91 S5        29.92S FOG
OFFUTT AFB     CLOUDY    60  60 100 S12       29.93F
PLATTSMOUTH    CLOUDY    58  57  94 S12       29.95S FOG
WAHOO          FAIR      59  56  89 S3        29.93R FOG
$$



USA.gov is the U.S. government's official web portal to all federal, state and local government web resources and services.